Погода в Подбельске

Россия / Самарская область     53°36′12″N   51°47′55″E
В апреле 2022 года жителям России запретили посещать сайт meteo.paraplan.net по решению Генеральной прокуратуры. Аудитория сайта уменьшилась в 10 раз. Владельцы сайта не видят смысла в поддержке погодного сервера в таких условиях. Сайт будет закрыт в октябре.
темп.,
°C
ветер,
м/с
пор.,
м/с
влажн.,
%
обл.,
%
осадки,
мм/ч
давл.,
гПа
погр.,
м
29 сентября, чт
чт2901:00+9юв71686100 0.1 1013481
04:00+10юв71787100 0.3 1012622
07:00+10юв71384100 0.4 1011535
10:00+11юв71386100 0.4 1011634
13:00+10юв71493100 1.7 1011499
16:00+11юв51196100 5.8 1011555
19:00+11юв4896100 1.5 1012367
22:00+10вюв479498 2.2 1014282
30 сентября, пт
пт3001:00+9в4592100 0.1 1015224
04:00+9всв3590100 0.1 1017226
07:00+8св3689100 0.0 1019270
10:00+11св457817 0.0 1020442
13:00+14св446837 0.0 1021732
16:00+14св446745 0.0 1022830
19:00+9всв47817 0.0 1024203
22:00+8всв378396 0.0 1024179
1 октября, сб
сб101:00+6всв3685100 0.0 1024151
04:00+6всв3585100 0.0 1025148
07:00+5всв2584100 0.0 1025124
10:00+10в346257 0.0 1025355
13:00+14вюв2252100 0.0 1024667
16:00+15юв235195 0.0 1023776
19:00+11ююв1166100 0.0 102310
22:00+10юв116769 0.0 102210
2 октября, вс
вс201:00+10юв1169100 0.0 102110
04:00+10юв2273100 0.0 102119
07:00+10юв228448 0.0 102123
10:00+16ююв466912 0.0 1020394
13:00+19ю475999 0.0 1018724
16:00+19ю376049 0.0 1017191
19:00+16ююв4116649 0.0 1016244
22:00+15ююв51365100 0.0 1016255
3 октября, пн
пн301:00+15ю51277100 0.4 1015299
04:00+15ююз61287100 1.8 1015457
07:00+12ююв5125797 0.2 1019326
10:00+14ю6116199 0.8 1020492
13:00+15ю5115192 0.0 1021497
16:00+16ю4114573 0.0 1021518
19:00+14ююв5124012 0.0 1023340
22:00+12ююв3104231 0.0 1024179